timestamp,wind_dir_avg,wind_spd_avg,wind_spd_max_dir,wind_spd_gust,battery_voltage,lat,long
2021-04-21 00:04:01+00:00,349.0,8.44,350.0,10.21,12.89,47.59359,-54.27349
2021-04-21 00:14:01+00:00,357.0,9.3,0.0,10.15,12.57,47.59359,-54.27349
2021-04-21 00:24:01+00:00,341.0,10.44,355.0,12.66,12.57,47.59359,-54.27349
2021-04-21 00:34:01+00:00,347.0,9.79,344.0,10.88,12.57,47.59359,-54.27349
2021-04-21 00:44:01+00:00,351.0,9.99,358.0,11.31,12.57,47.59359,-54.27349
2021-04-21 00:54:01+00:00,347.0,7.58,352.0,8.61,12.57,47.59359,-54.27349
2021-04-21 01:04:01+00:00,345.0,11.41,343.0,12.99,12.57,47.59359,-54.27349
2021-04-21 01:14:01+00:00,347.0,10.32,342.0,11.59,12.57,47.59359,-54.27349
2021-04-21 01:24:01+00:00,352.0,10.37,350.0,11.86,12.57,47.59359,-54.27349
2021-04-21 01:34:01+00:00,342.0,8.26,345.0,9.45,12.57,47.59359,-54.27349
2021-04-21 01:44:01+00:00,341.0,8.39,338.0,9.04,12.57,47.59359,-54.27349
2021-04-21 01:54:01+00:00,345.0,9.21,347.0,10.3,12.57,47.59359,-54.27349
2021-04-21 02:04:01+00:00,338.0,9.08,344.0,10.07,12.57,47.59359,-54.27349
2021-04-21 02:14:00+00:00,341.0,8.55,342.0,9.89,12.49,47.59359,-54.27349
2021-04-21 02:24:00+00:00,348.0,9.77,350.0,11.04,12.49,47.59359,-54.27349
2021-04-21 02:34:00+00:00,350.0,8.33,354.0,9.42,12.49,47.59359,-54.27349
2021-04-21 02:44:00+00:00,352.0,8.4,351.0,10.18,12.49,47.59359,-54.27349
2021-04-21 02:54:00+00:00,345.0,8.68,339.0,9.73,12.49,47.59359,-54.27349
2021-04-21 03:04:00+00:00,353.0,7.29,351.0,7.83,12.49,47.59359,-54.27349
2021-04-21 03:14:01+00:00,348.0,8.59,351.0,9.64,12.49,47.59359,-54.27349
2021-04-21 03:24:01+00:00,342.0,5.97,344.0,6.95,12.49,47.59359,-54.27349
2021-04-21 03:34:01+00:00,336.0,7.07,343.0,8.0,12.49,47.59359,-54.27349
2021-04-21 03:44:01+00:00,327.0,8.6,322.0,9.54,12.49,47.59359,-54.27349
2021-04-21 03:54:01+00:00,335.0,8.13,340.0,8.94,12.49,47.59359,-54.27349
2021-04-21 04:04:01+00:00,337.0,9.15,338.0,11.0,12.49,47.59359,-54.27349
2021-04-21 04:14:01+00:00,335.0,8.07,343.0,9.5,12.49,47.59359,-54.27349
2021-04-21 04:24:01+00:00,323.0,6.96,325.0,7.92,12.49,47.59359,-54.27349
2021-04-21 04:34:01+00:00,329.0,7.5,325.0,8.76,12.49,47.59359,-54.27349
2021-04-21 04:44:01+00:00,329.0,8.59,328.0,9.67,12.49,47.59359,-54.27349
2021-04-21 04:54:01+00:00,343.0,7.88,335.0,10.09,12.49,47.59359,-54.27349
2021-04-21 05:04:01+00:00,337.0,5.94,340.0,6.93,12.49,47.59359,-54.27349
2021-04-21 05:14:01+00:00,331.0,8.99,329.0,10.5,12.41,47.59359,-54.27349
2021-04-21 05:24:01+00:00,338.0,8.09,340.0,8.97,12.41,47.59359,-54.27349
2021-04-21 05:34:01+00:00,338.0,6.37,334.0,7.41,12.41,47.59359,-54.27349
2021-04-21 05:44:01+00:00,340.0,6.94,334.0,8.47,12.41,47.59359,-54.27349
2021-04-21 05:54:01+00:00,335.0,6.22,348.0,7.44,12.41,47.59359,-54.27349
2021-04-21 06:04:01+00:00,335.0,6.36,337.0,7.51,12.41,47.59359,-54.27349
2021-04-21 06:14:01+00:00,340.0,6.71,337.0,7.84,12.41,47.59359,-54.27349
2021-04-21 06:24:01+00:00,343.0,7.62,345.0,8.78,12.41,47.59359,-54.27349
2021-04-21 06:34:01+00:00,336.0,7.79,326.0,8.99,12.41,47.59359,-54.27349
2021-04-21 06:44:01+00:00,334.0,8.98,339.0,10.52,12.41,47.59359,-54.27349
2021-04-21 06:54:01+00:00,343.0,6.68,341.0,8.45,12.41,47.59359,-54.27349
2021-04-21 07:04:01+00:00,340.0,7.48,339.0,8.44,12.41,47.59359,-54.27349
2021-04-21 07:14:00+00:00,349.0,6.59,345.0,7.81,12.41,47.59359,-54.27349
2021-04-21 07:24:00+00:00,348.0,5.98,358.0,7.37,12.41,47.59359,-54.27349
2021-04-21 07:34:00+00:00,351.0,4.22,345.0,4.98,12.41,47.59359,-54.27349
2021-04-21 07:44:00+00:00,331.0,5.02,333.0,6.57,12.41,47.59359,-54.27349
2021-04-21 07:54:00+00:00,338.0,3.73,328.0,4.57,12.41,47.59359,-54.27349
2021-04-21 08:04:00+00:00,309.0,3.2,304.0,3.77,12.41,47.59359,-54.27349
2021-04-21 08:14:01+00:00,301.0,4.17,298.0,4.8,12.41,47.59359,-54.27349
2021-04-21 08:24:01+00:00,301.0,3.76,300.0,4.75,12.41,47.59359,-54.27349
2021-04-21 08:34:01+00:00,310.0,4.31,323.0,5.52,12.41,47.59359,-54.27349
2021-04-21 08:44:01+00:00,298.0,5.65,288.0,7.11,12.41,47.59359,-54.27349
2021-04-21 08:54:01+00:00,313.0,5.59,311.0,7.02,12.41,47.59359,-54.27349
2021-04-21 09:04:01+00:00,317.0,6.79,322.0,8.0,12.41,47.59359,-54.27349
2021-04-21 09:14:00+00:00,317.0,5.46,310.0,6.55,12.33,47.59359,-54.27349
2021-04-21 09:24:00+00:00,313.0,6.7,319.0,7.62,12.33,47.59359,-54.27349
2021-04-21 09:34:00+00:00,308.0,4.71,307.0,5.83,12.33,47.59359,-54.27349
2021-04-21 09:44:00+00:00,315.0,6.06,311.0,7.02,12.33,47.59359,-54.27349
2021-04-21 09:54:00+00:00,329.0,5.39,326.0,6.53,12.33,47.59359,-54.27349
2021-04-21 10:04:00+00:00,317.0,6.83,320.0,8.63,12.33,47.59359,-54.27349
2021-04-21 10:14:01+00:00,306.0,5.76,307.0,6.49,13.05,47.59359,-54.27349
2021-04-21 10:24:01+00:00,311.0,5.73,298.0,6.71,13.05,47.59359,-54.27349
2021-04-21 10:34:01+00:00,330.0,6.3,334.0,7.29,13.05,47.59359,-54.27349
2021-04-21 10:44:01+00:00,329.0,4.89,330.0,6.08,13.05,47.59359,-54.27349
2021-04-21 10:54:01+00:00,330.0,4.03,332.0,4.54,13.05,47.59359,-54.27349
2021-04-21 11:04:01+00:00,342.0,4.16,341.0,4.72,13.05,47.59359,-54.27349
2021-04-21 11:14:01+00:00,348.0,5.71,356.0,7.07,14.08,47.59359,-54.27349
2021-04-21 11:24:01+00:00,345.0,5.31,344.0,5.72,14.08,47.59359,-54.27349
2021-04-21 11:34:01+00:00,0.0,4.43,0.0,4.6,14.08,47.59359,-54.27349
2021-04-21 11:44:01+00:00,308.0,4.22,309.0,4.66,14.08,47.59359,-54.27349
2021-04-21 11:54:01+00:00,6.0,2.34,3.0,2.82,14.08,47.59359,-54.27349
2021-04-21 12:04:01+00:00,22.0,1.63,27.0,2.16,14.08,47.59359,-54.27349
2021-04-21 12:14:01+00:00,342.0,3.02,345.0,3.93,13.76,47.59359,-54.27349
2021-04-21 12:24:01+00:00,340.0,3.35,341.0,3.83,13.76,47.59359,-54.27349
2021-04-21 12:34:01+00:00,311.0,3.08,313.0,3.62,13.76,47.59359,-54.27349
2021-04-21 12:44:01+00:00,211.0,1.19,217.0,1.47,13.76,47.59359,-54.27349
2021-04-21 12:54:01+00:00,208.0,2.05,214.0,2.26,13.76,47.59359,-54.27349
2021-04-21 13:04:01+00:00,174.0,2.62,172.0,3.08,13.76,47.59359,-54.27349
2021-04-21 13:14:01+00:00,166.0,2.94,168.0,3.29,14.32,47.59359,-54.27349
2021-04-21 13:24:01+00:00,146.0,1.61,141.0,2.09,14.32,47.59359,-54.27349
2021-04-21 13:34:01+00:00,141.0,1.2,137.0,1.53,14.32,47.59359,-54.27349
2021-04-21 13:44:01+00:00,154.0,2.03,156.0,2.47,14.32,47.59359,-54.27349
2021-04-21 13:54:01+00:00,160.0,3.06,164.0,3.61,14.32,47.59359,-54.27349
2021-04-21 14:04:01+00:00,180.0,3.23,178.0,3.4,14.32,47.59359,-54.27349
2021-04-21 14:14:01+00:00,204.0,4.75,206.0,5.05,13.92,47.59359,-54.27349
2021-04-21 14:24:01+00:00,200.0,6.07,201.0,6.64,13.92,47.59359,-54.27349
2021-04-21 14:34:01+00:00,203.0,6.27,202.0,6.72,13.92,47.59359,-54.27349
2021-04-21 14:44:01+00:00,213.0,6.88,214.0,7.59,13.92,47.59359,-54.27349
2021-04-21 14:54:01+00:00,213.0,7.97,217.0,8.65,13.92,47.59359,-54.27349
2021-04-21 15:04:01+00:00,213.0,8.41,214.0,9.35,13.92,47.59359,-54.27349
2021-04-21 15:14:01+00:00,212.0,8.43,212.0,9.4,13.76,47.59359,-54.27349
2021-04-21 15:24:01+00:00,215.0,9.64,220.0,10.86,13.76,47.59359,-54.27349
2021-04-21 15:34:01+00:00,212.0,9.43,215.0,10.59,13.76,47.59359,-54.27349
2021-04-21 15:44:01+00:00,213.0,10.56,211.0,12.05,13.76,47.59359,-54.27349
2021-04-21 15:54:01+00:00,212.0,11.29,213.0,12.73,13.76,47.59359,-54.27349
2021-04-21 16:04:01+00:00,209.0,10.01,210.0,11.05,13.76,47.59359,-54.27349
2021-04-21 16:14:01+00:00,206.0,10.16,206.0,11.11,13.92,47.59359,-54.27349
2021-04-21 16:24:01+00:00,201.0,9.68,203.0,11.09,13.92,47.59359,-54.27349
2021-04-21 16:34:01+00:00,209.0,9.94,211.0,11.41,13.92,47.59359,-54.27349
2021-04-21 16:44:01+00:00,209.0,9.65,213.0,10.91,13.92,47.59359,-54.27349
2021-04-21 16:54:01+00:00,208.0,10.24,210.0,11.99,13.92,47.59359,-54.27349
2021-04-21 17:04:01+00:00,211.0,9.62,215.0,11.14,13.92,47.59359,-54.27349
2021-04-21 17:14:01+00:00,212.0,9.81,213.0,10.9,14.32,47.59359,-54.27349
2021-04-21 17:24:01+00:00,206.0,8.12,205.0,8.8,14.32,47.59359,-54.27349
2021-04-21 17:34:01+00:00,211.0,8.77,203.0,9.49,14.32,47.59359,-54.27349
2021-04-21 17:44:01+00:00,209.0,8.28,208.0,8.98,14.32,47.59359,-54.27349
2021-04-21 17:54:01+00:00,209.0,5.92,211.0,6.4,14.32,47.59359,-54.27349
2021-04-21 18:04:01+00:00,202.0,6.18,201.0,6.81,14.32,47.59359,-54.27349
2021-04-21 18:14:01+00:00,210.0,6.78,216.0,9.86,14.0,47.59359,-54.27349
2021-04-21 18:24:01+00:00,208.0,7.56,216.0,9.04,14.0,47.59359,-54.27349
2021-04-21 18:34:01+00:00,205.0,8.52,201.0,9.19,14.0,47.59359,-54.27349
2021-04-21 18:44:01+00:00,202.0,7.29,200.0,8.4,14.0,47.59359,-54.27349
2021-04-21 18:54:01+00:00,206.0,7.4,208.0,8.49,14.0,47.59359,-54.27349
2021-04-21 19:04:01+00:00,214.0,5.55,219.0,6.68,14.0,47.59359,-54.27349
2021-04-21 19:14:01+00:00,283.0,6.86,283.0,8.17,13.84,47.59359,-54.27349
2021-04-21 19:24:01+00:00,282.0,7.43,281.0,8.53,13.84,47.59359,-54.27349
2021-04-21 19:34:01+00:00,286.0,7.34,287.0,7.83,13.84,47.59359,-54.27349
2021-04-21 19:44:01+00:00,285.0,5.78,287.0,6.3,13.84,47.59359,-54.27349
2021-04-21 19:54:01+00:00,282.0,5.96,279.0,6.82,13.84,47.59359,-54.27349
2021-04-21 20:04:01+00:00,284.0,6.53,283.0,6.93,13.84,47.59359,-54.27349
2021-04-21 20:14:01+00:00,281.0,5.18,279.0,5.87,13.84,47.59359,-54.27349
2021-04-21 20:24:01+00:00,265.0,4.14,270.0,5.24,13.84,47.59359,-54.27349
2021-04-21 20:34:01+00:00,254.0,4.5,254.0,4.86,13.84,47.59359,-54.27349
2021-04-21 20:44:01+00:00,261.0,6.7,262.0,7.07,13.84,47.59359,-54.27349
2021-04-21 20:54:01+00:00,241.0,5.94,244.0,6.72,13.84,47.59359,-54.27349
2021-04-21 21:04:01+00:00,220.0,5.07,227.0,5.99,13.84,47.59359,-54.27349
2021-04-21 21:14:01+00:00,216.0,6.34,225.0,6.96,13.68,47.59359,-54.27349
2021-04-21 21:24:01+00:00,220.0,5.7,221.0,7.05,13.68,47.59359,-54.27349
2021-04-21 21:34:01+00:00,230.0,6.62,233.0,7.67,13.68,47.59359,-54.27349
2021-04-21 21:44:01+00:00,218.0,7.53,217.0,8.21,13.68,47.59359,-54.27349
2021-04-21 21:54:01+00:00,211.0,7.65,209.0,8.57,13.68,47.59359,-54.27349
2021-04-21 22:04:01+00:00,220.0,7.17,225.0,8.23,13.68,47.59359,-54.27349
2021-04-21 22:14:01+00:00,216.0,6.46,223.0,7.27,13.44,47.59359,-54.27349
2021-04-21 22:24:01+00:00,214.0,5.95,215.0,6.5,13.44,47.59359,-54.27349
2021-04-21 22:34:01+00:00,206.0,6.82,204.0,7.38,13.44,47.59359,-54.27349
2021-04-21 22:44:01+00:00,218.0,6.18,220.0,6.86,13.44,47.59359,-54.27349
2021-04-21 22:54:01+00:00,212.0,4.4,222.0,5.61,13.44,47.59359,-54.27349
2021-04-21 23:04:01+00:00,225.0,6.22,227.0,7.28,13.44,47.59359,-54.27349
2021-04-21 23:14:01+00:00,233.0,5.41,228.0,6.64,12.81,47.59359,-54.27349
2021-04-21 23:24:01+00:00,232.0,3.64,227.0,4.61,12.81,47.59359,-54.27349
2021-04-21 23:34:01+00:00,231.0,3.67,233.0,4.83,12.81,47.59359,-54.27349
2021-04-21 23:44:01+00:00,222.0,4.27,221.0,4.7,12.81,47.59359,-54.27349
2021-04-21 23:54:01+00:00,203.0,3.68,196.0,4.24,12.81,47.59359,-54.27349
